[[{"header":{"parameterUnit":"m.s-1","parameterCategory":1,"la1":30.2991,"la2":30.254,"lo1":-89.0895,"lo2":-89.0444,"dy":0.0017,"dx":0.0017,"nx":28,"ny":28,"refTime":"2024-11-24T03:00:00:Z","depth":0,"parameterNumber":2,"parameterNumberName":"U-component_of_WINDS"},"data":[0,0,0,0,0,0,0,0,0,0,0,0,0,0,0,0,0,0,0,0,0,0,0,0,0,0,0,0,0,0,0,0,0,0,0,0,0,0,0,0,0,0,0,0,0,0,0,0,0,0,0,0,0,0,0,0,0,0,0.0714,0.0714,0,0.0696,0.0696,0.0696,0.0653,0.0652,0.0651,0.065,0.0632,0.0633,0.0633,0,0,0,0,0,0,0,0,0,0,0,0,0,0.0712,0.0712,0.0714,0.0714,0.0714,0.0696,0.0696,0.0696,0.0653,0.0652,0.0651,0.065,0.0632,0.0633,0.0633,0,0,0,0,0,0,0,0,0,0,0,0,0,0.0706,0.0712,0.0714,0.069,0.0688,0.0696,0.0696,0.0696,0.0653,0.0652,0.065,0.0649,0.0632,0.0633,0.0633,0.0664,0,0,0.0635,0.0635,0,0,0,0,0,0,0,0,0.0706,0.0706,0.0694,0.0692,0.0689,0.0675,0.0689,0.0685,0.0654,0.0666,0.065,0.0649,0.0648,0.0647,0.0647,0.0663,0.0662,0.0635,0.0635,0.0636,0.0636,0,0,0,0,0,0,0,0.0706,0.0706,0.0707,0.0694,0.0691,0.0681,0.0678,0.0688,0.0665,0.0665,0.0662,0.066,0.0646,0.0646,0.0646,0.0662,0.0635,0.0635,0.0636,0.0636,0.0704,0.0705,0,0,0,0,0,0,0.071,0.0707,0.0708,0.0707,0.0694,0.0682,0.0679,0.0681,0.0665,0.0661,0.0662,0.0659,0.0646,0.0645,0.0645,0.0681,0.0636,0.0636,0.0636,0.0702,0.0704,0.0706,0,0,0,0,0,0,0.071,0.0711,0.0708,0.0706,0.0705,0.0683,0.0686,0.0682,0.0681,0.0662,0.0658,0.0666,0.0645,0.0644,0.066,0.068,0.0636,0.0637,0.0701,0.0703,0.0705,0.0753,0,0,0,0,0,0,0.0711,0.0711,0.0722,0.0706,0.0705,0.0723,0.0687,0.0682,0.0683,0.0678,0.0665,0.0661,0.0644,0.0659,0.066,0.068,0.0637,0.0699,0.0702,0.0704,0.0749,0.0756,0.0762,0,0,0,0,0,0.0711,0.0736,0.0723,0.0723,0.0719,0.0724,0.0724,0.0703,0.0684,0.0696,0.0683,0.0662,0.0677,0.0661,0.0662,0.0682,0.0698,0.0701,0.0704,0.0746,0.0755,0.0762,0,0,0,0,0,0,0.0755,0.0734,0.0719,0.074,0.0734,0.0717,0.0731,0.0712,0.0712,0.0708,0.0682,0.068,0.0699,0.0692,0.0674,0.0711,0.0684,0.0688,0.0716,0.0724,0.073,0.0732,0.0638,0,0,0,0,0,0.0767,0.0773,0.0754,0.0775,0.0773,0.0752,0.0754,0.0739,0.0732,0.0729,0.0718,0.0713,0.0716,0.0719,0.0721,0.0748,0.0745,0.0762,0.0768,0.0774,0.0778,0.0792,0.08,0.0717,0.0717,0.0717,0,0,0.0792,0.0781,0.0787,0.0784,0.0777,0.0785,0.0751,0.076,0.0766,0.0731,0.0745,0.0737,0.0729,0.075,0.0759,0.0745,0.08,0.0778,0.0782,0.0783,0.0797,0.0805,0.0812,0.0719,0.0719,0.0718,0,0,0.0843,0.0834,0.0851,0.0846,0.0837,0.0824,0.0828,0.0813,0.0807,0.082,0.0795,0.0801,0.0808,0.0804,0.0803,0.0852,0.0833,0.0854,0.0888,0.0903,0.091,0.0915,0.0935,0.0942,0.0857,0.0857,0.0857,0,0.0875,0.0886,0.0862,0.0874,0.0874,0.0842,0.086,0.0856,0.0848,0.0849,0.0833,0.0841,0.0834,0.0854,0.0867,0.0866,0.0871,0.0856,0.091,0.0916,0.0921,0.0939,0.0946,0.086,0.086,0.0859,0.0859,0,0.0927,0.0935,0.095,0.0944,0.0945,0.0959,0.0939,0.0943,0.0927,0.0915,0.0931,0.092,0.0921,0.0924,0.0909,0.0943,0.0935,0.0915,0.0887,0.0932,0.0949,0.0955,0.0864,0.0863,0.0862,0.0862,0,0,0.1005,0.0987,0.0993,0.099,0.0978,0.0984,0.0997,0.0998,0.1002,0.0998,0.101,0.1016,0.0998,0.0997,0.0981,0.0993,0.1035,0.0972,0.0971,0.0986,0.1074,0.1091,0.1099,0.1022,0.1023,0.1024,0.1076,0,0.1054,0.1076,0.1056,0.1082,0.1089,0.106,0.1071,0.1066,0.1055,0.106,0.1048,0.1054,0.1029,0.1028,0.104,0.1028,0.1053,0.1024,0.1034,0.1034,0.1038,0.1107,0.1124,0.1174,0.1082,0.1083,0.1084,0,0.1114,0.1113,0.114,0.1128,0.113,0.1141,0.114,0.1145,0.1139,0.113,0.1129,0.111,0.1123,0.1095,0.1113,0.1093,0.1096,0.1091,0.1092,0.1093,0.1063,0.1112,0.1188,0.1197,0.1093,0.1093,0.1092,0,0.117,0.1176,0.1193,0.1192,0.1177,0.1186,0.118,0.1172,0.1174,0.1173,0.1175,0.1175,0.1176,0.1178,0.1159,0.114,0.118,0.115,0.1175,0.1175,0.1186,0.1186,0.1265,0.1185,0.1185,0.1185,0.1184,0,0.1228,0.1246,0.1218,0.1229,0.1249,0.1225,0.1246,0.1237,0.123,0.1239,0.1213,0.1222,0.1197,0.1204,0.1189,0.1207,0.1207,0.1202,0.1198,0.1205,0.1206,0.1207,0.1204,0.1186,0.1186,0.1186,0.1185,0,0.1295,0.1277,0.1294,0.1279,0.1276,0.1291,0.1279,0.1288,0.1276,0.1288,0.1289,0.127,0.1277,0.1258,0.1262,0.1252,0.1279,0.1269,0.1282,0.1279,0.1305,0.1304,0.139,0.1401,0.1312,0.1313,0.1314,0,0.1333,0.1347,0.1333,0.1338,0.1334,0.1341,0.1343,0.132,0.1323,0.1317,0.1328,0.1332,0.1335,0.1347,0.1334,0.1337,0.1328,0.1357,0.1328,0.1335,0.133,0.133,0.1332,0.1364,0.1365,0.1366,0.1367,0,0.1404,0.1395,0.1399,0.14,0.1403,0.1403,0.1401,0.1406,0.1382,0.1387,0.1394,0.1396,0.1399,0.1405,0.1405,0.1399,0.138,0.1376,0.1382,0.139,0.1398,0.1396,0.13,0.1375,0.1374,0.1373,0.1373,0.1372,0.1459,0.147,0.1463,0.1468,0.1465,0.1464,0.1473,0.1462,0.1467,0.1468,0.1454,0.1464,0.1458,0.1456,0.1453,0.1461,0.1447,0.1456,0.1458,0.1461,0.1466,0.1395,0.1461,0.146,0.146,0.146,0.146,0,0.153,0.1524,0.1529,0.1528,0.1532,0.1513,0.151,0.1515,0.1524,0.152,0.1523,0.1532,0.1537,0.1524,0.1527,0.1536,0.1527,0.1538,0.1538,0.1537,0.1477,0.1473,0.1545,0.1545,0.1545,0.1545,0.1545,0.1545,0.1568,0.1586,0.1576,0.1592,0.1586,0.1596,0.1596,0.1595,0.1592,0.1602,0.1607,0.1598,0.1591,0.1594,0.1598,0.1594,0.1598,0.1612,0.1605,0.155,0.1541,0.1533,0.1529,0.1612,0.1612,0.1664,0.1665,0.1665]},{"header":{"parameterUnit":"m.s-1","parameterCategory":1,"la1":30.2991,"la2":30.254,"lo1":-89.0895,"lo2":-89.0444,"dy":0.0017,"dx":0.0017,"nx":28,"ny":28,"refTime":"2024-11-24T03:00:00:Z","depth":0,"parameterNumber":3,"parameterNumberName":"V-component_of_WINDS"},"data":[0,0,0,0,0,0,0,0,0,0,0,0,0,0,0,0,0,0,0,0,0,0,0,0,0,0,0,0,0,0,0,0,0,0,0,0,0,0,0,0,0,0,0,0,0,0,0,0,0,0,0,0,0,0,0,0,0,0,0.2053,0.2053,0,0.2008,0.2007,0.2007,0.1894,0.1891,0.1889,0.1887,0.1846,0.1848,0.1849,0,0,0,0,0,0,0,0,0,0,0,0,0,0.2048,0.2048,0.2053,0.2053,0.2052,0.2008,0.2007,0.2007,0.1894,0.1891,0.1888,0.1885,0.1846,0.1847,0.1849,0,0,0,0,0,0,0,0,0,0,0,0,0,0.2031,0.2049,0.2053,0.199,0.1984,0.2008,0.2007,0.2006,0.1895,0.1891,0.1887,0.1884,0.1846,0.1847,0.1849,0.1932,0,0,0.1854,0.1855,0,0,0,0,0,0,0,0,0.2032,0.2032,0.2,0.1995,0.1988,0.1952,0.199,0.1982,0.1896,0.1929,0.1886,0.1882,0.1885,0.1883,0.1883,0.193,0.1928,0.1854,0.1856,0.1856,0.1857,0,0,0,0,0,0,0,0.2034,0.2033,0.2035,0.2,0.1992,0.1966,0.196,0.1988,0.1928,0.1926,0.1917,0.1913,0.1881,0.1882,0.1881,0.1928,0.1854,0.1856,0.1857,0.1858,0.2042,0.2046,0,0,0,0,0,0,0.2043,0.2035,0.2037,0.2034,0.2001,0.1969,0.1962,0.1968,0.1927,0.1918,0.1916,0.1908,0.188,0.1879,0.1879,0.1975,0.1856,0.1858,0.1859,0.2038,0.2043,0.2047,0,0,0,0,0,0,0.2043,0.2044,0.2039,0.2032,0.2029,0.1973,0.198,0.1969,0.1969,0.192,0.1909,0.1928,0.1877,0.1877,0.192,0.1972,0.1859,0.186,0.2034,0.204,0.2045,0.2168,0,0,0,0,0,0,0.2044,0.2045,0.2075,0.2033,0.203,0.2079,0.1983,0.197,0.1972,0.196,0.1928,0.1919,0.1875,0.1918,0.1921,0.1973,0.1862,0.2029,0.2036,0.2043,0.2159,0.2177,0.2192,0,0,0,0,0,0.2044,0.2112,0.2077,0.2078,0.2066,0.2082,0.208,0.2026,0.1976,0.2007,0.1975,0.192,0.1965,0.1923,0.1926,0.1979,0.2025,0.2034,0.2043,0.2151,0.2173,0.2192,0,0,0,0,0,0,0.2164,0.2106,0.2066,0.2123,0.2108,0.2063,0.2099,0.2051,0.2051,0.2041,0.1975,0.1969,0.2021,0.2003,0.1958,0.2058,0.1986,0.1996,0.2068,0.2088,0.2105,0.211,0.1863,0,0,0,0,0,0.2196,0.2212,0.2161,0.2216,0.221,0.2157,0.2161,0.212,0.2103,0.2097,0.2069,0.2056,0.2067,0.2076,0.2084,0.2154,0.2147,0.2192,0.2209,0.2223,0.2234,0.2272,0.2292,0.2076,0.2075,0.2075,0,0,0.2265,0.2235,0.225,0.224,0.2223,0.2243,0.2152,0.2177,0.2192,0.2101,0.214,0.2119,0.21,0.2158,0.2182,0.2145,0.2291,0.2234,0.2246,0.2249,0.2283,0.2303,0.2322,0.2081,0.208,0.2079,0,0,0.2401,0.2378,0.2422,0.2407,0.2383,0.2346,0.2357,0.2319,0.2301,0.2338,0.2271,0.2288,0.2308,0.2298,0.2296,0.2426,0.2377,0.243,0.252,0.2558,0.2575,0.259,0.2639,0.2657,0.244,0.2441,0.2441,0,0.249,0.2515,0.2452,0.2481,0.248,0.2396,0.2441,0.243,0.2411,0.2413,0.237,0.2394,0.2376,0.2431,0.2463,0.2462,0.2475,0.2436,0.2577,0.2592,0.2605,0.2651,0.2669,0.2447,0.2447,0.2446,0.2445,0,0.2627,0.2646,0.2685,0.2666,0.2669,0.2706,0.265,0.266,0.2619,0.2587,0.2627,0.2601,0.2603,0.2612,0.2572,0.2662,0.264,0.2589,0.2516,0.2633,0.2676,0.2693,0.2457,0.2455,0.2453,0.2451,0,0,0.284,0.2784,0.28,0.2791,0.2757,0.2772,0.2805,0.2804,0.2816,0.2805,0.2834,0.2852,0.2804,0.2801,0.2759,0.2792,0.29,0.2737,0.2735,0.2771,0.3,0.3042,0.3063,0.2865,0.2868,0.2871,0.3003,0,0.297,0.3024,0.2967,0.3033,0.3051,0.2971,0.3,0.2984,0.2955,0.2968,0.2936,0.2951,0.2885,0.2883,0.2912,0.2881,0.2946,0.287,0.2895,0.2896,0.2905,0.3085,0.3128,0.3254,0.3019,0.3022,0.3024,0,0.3129,0.3124,0.3192,0.3154,0.3159,0.3187,0.3182,0.3193,0.3174,0.315,0.3147,0.3096,0.3128,0.3055,0.31,0.305,0.3056,0.3043,0.3046,0.305,0.297,0.3096,0.3293,0.3313,0.3049,0.3047,0.3045,0,0.3282,0.3291,0.3333,0.3327,0.3283,0.3305,0.3288,0.3264,0.3267,0.3263,0.3265,0.3266,0.3268,0.327,0.3221,0.3172,0.3274,0.3196,0.3258,0.326,0.3286,0.3286,0.349,0.3285,0.3285,0.3284,0.3284,0,0.3435,0.348,0.3401,0.3427,0.3476,0.341,0.3461,0.3436,0.3415,0.3437,0.3367,0.3389,0.3321,0.3336,0.3298,0.3343,0.3343,0.3328,0.3318,0.3336,0.3339,0.3342,0.3333,0.3289,0.3288,0.3287,0.3286,0,0.3615,0.3563,0.3603,0.3558,0.3547,0.3586,0.3547,0.3571,0.3536,0.3564,0.3567,0.3514,0.3528,0.3478,0.3485,0.3459,0.3527,0.35,0.3533,0.3527,0.3593,0.3589,0.3809,0.3836,0.3611,0.3613,0.3615,0,0.3717,0.375,0.3707,0.3715,0.3702,0.3716,0.3718,0.3655,0.3661,0.3641,0.3668,0.3675,0.3679,0.3706,0.367,0.3675,0.3651,0.3727,0.3651,0.3669,0.3656,0.3656,0.366,0.3745,0.3747,0.375,0.3751,0,0.3906,0.3879,0.3884,0.3881,0.3885,0.388,0.387,0.3881,0.3813,0.3824,0.3837,0.3839,0.3845,0.3855,0.3852,0.3837,0.3785,0.3775,0.379,0.3811,0.383,0.3824,0.358,0.3771,0.3769,0.3768,0.3767,0.3766,0.4053,0.4078,0.4052,0.4061,0.4046,0.4038,0.4058,0.4025,0.4034,0.4033,0.3995,0.4016,0.3996,0.3986,0.3976,0.3993,0.3958,0.3979,0.3985,0.3992,0.4005,0.3824,0.3992,0.3991,0.399,0.399,0.399,0,0.4241,0.4219,0.4227,0.4215,0.4222,0.4168,0.4154,0.4165,0.4184,0.4168,0.4172,0.4188,0.4197,0.416,0.4165,0.4186,0.4162,0.4189,0.4189,0.4187,0.4035,0.4022,0.4209,0.4209,0.4209,0.4209,0.4208,0.4208,0.4339,0.4381,0.435,0.4384,0.4362,0.4381,0.4378,0.4371,0.4359,0.4379,0.4385,0.436,0.4337,0.4339,0.4345,0.4334,0.4341,0.4378,0.4359,0.4219,0.4197,0.4177,0.4166,0.4379,0.4379,0.451,0.4511,0.4512]}]]